[[{"header":{"parameterUnit":"m.s-1","parameterCategory":1,"la1":30.2991,"la2":30.254,"lo1":-89.0895,"lo2":-89.0444,"dy":0.0017,"dx":0.0017,"nx":28,"ny":28,"refTime":"2024-03-21T21:00:00:Z","depth":0,"parameterNumber":2,"parameterNumberName":"U-component_of_WINDS"},"data":[0,0,0,0,0,0,0,0,0,0,0,0,0,0,0,0,0,0,0,0,0,0,0,0,0,0,0,0,0,0,0,0,0,0,0,0,0,0,0,0,0,0,0,0,0,0,0,0,0,0,0,0,0,0,0,0,0,0,1.8823,1.8823,0,1.884,1.884,1.884,1.8811,1.881,1.8809,1.8808,1.8825,1.8826,1.8828,0,0,0,0,0,0,0,0,0,0,0,0,0,1.8767,1.8768,1.8823,1.8823,1.8823,1.884,1.884,1.884,1.8811,1.881,1.8809,1.8808,1.8825,1.8826,1.8828,0,0,0,0,0,0,0,0,0,0,0,0,0,1.8788,1.8769,1.8823,1.8811,1.881,1.884,1.884,1.884,1.8812,1.881,1.8809,1.8807,1.8824,1.8826,1.8828,1.887,0,0,1.8834,1.8835,0,0,0,0,0,0,0,0,1.8787,1.8791,1.8812,1.8812,1.8811,1.8822,1.8826,1.885,1.8812,1.8811,1.8808,1.8807,1.8825,1.8827,1.8833,1.8871,1.8872,1.8834,1.8836,1.8837,1.8837,0,0,0,0,0,0,0,1.8786,1.879,1.8829,1.8813,1.8812,1.8805,1.8807,1.8831,1.8826,1.8811,1.8809,1.8811,1.8824,1.8831,1.8834,1.8872,1.8834,1.8836,1.8837,1.8838,1.8949,1.895,0,0,0,0,0,0,1.8786,1.8789,1.8829,1.883,1.8795,1.8807,1.8809,1.882,1.8826,1.8825,1.8813,1.881,1.8829,1.8831,1.8834,1.8886,1.8837,1.8838,1.884,1.8947,1.8949,1.8951,0,0,0,0,0,0,1.8785,1.879,1.8828,1.8809,1.8813,1.881,1.8822,1.8821,1.8828,1.8827,1.8826,1.8821,1.8828,1.8831,1.8862,1.8886,1.8839,1.8841,1.8945,1.8947,1.895,1.8989,0,0,0,0,0,0,1.8783,1.8789,1.8805,1.8809,1.8814,1.8855,1.8824,1.8822,1.8832,1.8828,1.8834,1.8834,1.8827,1.8859,1.8864,1.8888,1.8843,1.8943,1.8946,1.8949,1.8985,1.8992,1.8998,0,0,0,0,0,1.8781,1.8814,1.8805,1.881,1.8833,1.8857,1.886,1.8851,1.8833,1.8849,1.885,1.8834,1.8883,1.8863,1.8868,1.8893,1.8941,1.8945,1.8949,1.8983,1.8991,1.8998,0,0,0,0,0,0,1.8811,1.8814,1.8805,1.884,1.8849,1.8852,1.8871,1.886,1.8873,1.887,1.8859,1.886,1.8894,1.8896,1.8874,1.8936,1.8909,1.8914,1.8933,1.8941,1.8947,1.8946,1.8845,0,0,0,0,0,1.8822,1.884,1.8842,1.8873,1.8878,1.8874,1.8884,1.8877,1.8886,1.8889,1.8891,1.89,1.8918,1.8929,1.8945,1.8986,1.8988,1.9006,1.9012,1.9018,1.9022,1.9047,1.9056,1.8963,1.8963,1.8963,0,0,1.8844,1.8848,1.886,1.8879,1.8885,1.8906,1.8877,1.8899,1.8915,1.8892,1.8922,1.8925,1.8934,1.8971,1.8987,1.8974,1.9049,1.9023,1.9027,1.9029,1.9052,1.9061,1.9069,1.8966,1.8966,1.8965,0,0,1.8895,1.8899,1.8926,1.8934,1.8944,1.8941,1.8948,1.8954,1.8955,1.8986,1.897,1.8989,1.9019,1.9027,1.9035,1.9094,1.9081,1.9099,1.9133,1.9158,1.9165,1.9171,1.9195,1.9203,1.9104,1.9104,1.9104,0,1.8921,1.8951,1.8942,1.8966,1.8977,1.8958,1.8987,1.8994,1.9009,1.9017,1.9002,1.9042,1.9046,1.9087,1.9101,1.9108,1.9117,1.9098,1.9165,1.9171,1.9177,1.9199,1.9207,1.9106,1.9106,1.9106,1.9106,0,1.8984,1.9005,1.9026,1.9043,1.9055,1.9081,1.9078,1.9092,1.9085,1.9085,1.9118,1.9123,1.9142,1.9151,1.9143,1.9191,1.9183,1.9166,1.9139,1.9188,1.9209,1.9217,1.911,1.9109,1.9108,1.9108,0,0,1.9052,1.9065,1.9073,1.9082,1.9093,1.911,1.9137,1.9156,1.9169,1.918,1.9204,1.9232,1.9218,1.9227,1.9221,1.9242,1.9292,1.9224,1.9224,1.9238,1.9348,1.9361,1.9371,1.9283,1.9285,1.9286,1.9348,0,1.9104,1.9151,1.9145,1.919,1.9212,1.9196,1.922,1.923,1.9232,1.9251,1.9252,1.9273,1.9252,1.9259,1.9279,1.9281,1.9314,1.9277,1.9306,1.9308,1.9306,1.9381,1.9394,1.9452,1.9356,1.9357,1.9358,0,1.9171,1.9187,1.9234,1.9245,1.9254,1.9276,1.9295,1.9312,1.9325,1.9325,1.9337,1.9328,1.9357,1.933,1.9371,1.9346,1.9358,1.9362,1.9364,1.9367,1.9336,1.9388,1.947,1.9479,1.937,1.9369,1.9368,0,1.9218,1.9251,1.9285,1.9292,1.9306,1.9322,1.9328,1.9339,1.9352,1.9369,1.9378,1.9397,1.9408,1.9424,1.9422,1.9401,1.9464,1.9436,1.9466,1.9467,1.948,1.9479,1.9567,1.9486,1.9486,1.9486,1.9486,0,1.9278,1.9308,1.9307,1.9328,1.9362,1.9356,1.9391,1.9395,1.9406,1.9428,1.9416,1.9437,1.9432,1.9454,1.9452,1.9488,1.9492,1.9494,1.9493,1.9496,1.9496,1.9504,1.95,1.9488,1.9488,1.9487,1.9487,0,1.9336,1.9337,1.9373,1.9383,1.9387,1.9412,1.9422,1.9442,1.9444,1.9473,1.9479,1.9482,1.9508,1.9507,1.9535,1.9534,1.9579,1.9572,1.9575,1.9574,1.9605,1.9603,1.9702,1.9715,1.9624,1.9625,1.9626,0,1.9375,1.9398,1.9412,1.9427,1.9435,1.9458,1.9472,1.9468,1.9483,1.9502,1.9521,1.9545,1.9565,1.9606,1.9611,1.9634,1.9629,1.9662,1.9632,1.9635,1.9632,1.9631,1.9635,1.9668,1.9669,1.967,1.9671,0,1.9444,1.9444,1.9464,1.9486,1.9503,1.952,1.9535,1.9548,1.9547,1.9565,1.9591,1.9607,1.9637,1.9662,1.9685,1.9692,1.9682,1.9681,1.9689,1.9692,1.9693,1.9695,1.9592,1.9678,1.9677,1.9677,1.9676,1.9676,1.9495,1.9516,1.953,1.9555,1.9566,1.9582,1.9603,1.9608,1.963,1.9655,1.9652,1.9682,1.9698,1.9727,1.9737,1.9761,1.975,1.9761,1.9765,1.9768,1.9773,1.9689,1.9765,1.9765,1.9765,1.9764,1.9764,0,1.9565,1.9574,1.9596,1.962,1.964,1.9629,1.9647,1.9664,1.9691,1.9706,1.9727,1.9759,1.9784,1.9793,1.9818,1.9836,1.9832,1.9843,1.9842,1.9845,1.978,1.9771,1.9846,1.9846,1.9846,1.9846,1.9846,1.9846,1.9604,1.964,1.9642,1.9685,1.9694,1.9724,1.9736,1.9751,1.9763,1.98,1.9822,1.9827,1.9841,1.9867,1.9891,1.9893,1.9904,1.9917,1.9917,1.9857,1.9849,1.9841,1.9832,1.9918,1.9919,1.9979,1.998,1.998]},{"header":{"parameterUnit":"m.s-1","parameterCategory":1,"la1":30.2991,"la2":30.254,"lo1":-89.0895,"lo2":-89.0444,"dy":0.0017,"dx":0.0017,"nx":28,"ny":28,"refTime":"2024-03-21T21:00:00:Z","depth":0,"parameterNumber":3,"parameterNumberName":"V-component_of_WINDS"},"data":[0,0,0,0,0,0,0,0,0,0,0,0,0,0,0,0,0,0,0,0,0,0,0,0,0,0,0,0,0,0,0,0,0,0,0,0,0,0,0,0,0,0,0,0,0,0,0,0,0,0,0,0,0,0,0,0,0,0,-6.1689,-6.1689,0,-6.166,-6.166,-6.1659,-6.163,-6.163,-6.1629,-6.1629,-6.1596,-6.1596,-6.1595,0,0,0,0,0,0,0,0,0,0,0,0,0,-6.1719,-6.1718,-6.1689,-6.1689,-6.1688,-6.166,-6.166,-6.1659,-6.163,-6.163,-6.1629,-6.1629,-6.1597,-6.1596,-6.1595,0,0,0,0,0,0,0,0,0,0,0,0,0,-6.1699,-6.1718,-6.1689,-6.1671,-6.1669,-6.166,-6.166,-6.1659,-6.163,-6.163,-6.1629,-6.1629,-6.1597,-6.1596,-6.1595,-6.1602,0,0,-6.1593,-6.1592,0,0,0,0,0,0,0,0,-6.17,-6.1698,-6.1674,-6.1672,-6.167,-6.1648,-6.1658,-6.164,-6.163,-6.1645,-6.1629,-6.1628,-6.1614,-6.1612,-6.1607,-6.16,-6.1599,-6.1593,-6.1592,-6.1592,-6.1592,0,0,0,0,0,0,0,-6.1702,-6.1699,-6.1677,-6.1673,-6.1671,-6.1663,-6.166,-6.1654,-6.1633,-6.1643,-6.1641,-6.1638,-6.1613,-6.1608,-6.1606,-6.1598,-6.1593,-6.1592,-6.1592,-6.1591,-6.1596,-6.1597,0,0,0,0,0,0,-6.1706,-6.17,-6.1678,-6.1677,-6.1684,-6.1663,-6.1659,-6.1656,-6.1633,-6.1629,-6.1639,-6.1637,-6.161,-6.1607,-6.1605,-6.1612,-6.1592,-6.1591,-6.1591,-6.1596,-6.1597,-6.1597,0,0,0,0,0,0,-6.1707,-6.1704,-6.168,-6.1688,-6.1684,-6.1663,-6.1659,-6.1655,-6.1651,-6.1629,-6.1625,-6.1638,-6.1609,-6.1606,-6.1603,-6.161,-6.1591,-6.159,-6.1595,-6.1596,-6.1597,-6.1625,0,0,0,0,0,0,-6.1708,-6.1705,-6.1707,-6.1688,-6.1684,-6.1679,-6.166,-6.1655,-6.165,-6.1647,-6.1628,-6.1624,-6.1608,-6.1605,-6.1603,-6.1609,-6.159,-6.1594,-6.1596,-6.1597,-6.1624,-6.1627,-6.163,0,0,0,0,0,-6.1709,-6.1716,-6.1708,-6.1705,-6.1687,-6.1679,-6.1677,-6.166,-6.1651,-6.1653,-6.1639,-6.1624,-6.161,-6.1605,-6.1602,-6.1608,-6.1594,-6.1595,-6.1596,-6.1622,-6.1626,-6.163,0,0,0,0,0,0,-6.1735,-6.1713,-6.1704,-6.1704,-6.1694,-6.1674,-6.1676,-6.1664,-6.1656,-6.1653,-6.1632,-6.1628,-6.1627,-6.1617,-6.1612,-6.1614,-6.16,-6.1601,-6.162,-6.1624,-6.1627,-6.163,-6.1589,0,0,0,0,0,-6.1741,-6.1737,-6.1718,-6.172,-6.1716,-6.1697,-6.1693,-6.1681,-6.1669,-6.1664,-6.1651,-6.1639,-6.1632,-6.1628,-6.162,-6.1622,-6.1618,-6.1626,-6.1629,-6.1632,-6.1632,-6.1634,-6.1637,-6.1602,-6.1602,-6.1602,0,0,-6.1753,-6.174,-6.1739,-6.1725,-6.1716,-6.1712,-6.1694,-6.169,-6.1687,-6.1664,-6.166,-6.165,-6.1636,-6.1636,-6.1635,-6.1628,-6.1642,-6.1633,-6.1636,-6.1635,-6.1636,-6.1639,-6.1642,-6.1603,-6.1602,-6.1602,0,0,-6.1773,-6.1763,-6.1764,-6.1756,-6.1742,-6.173,-6.1731,-6.1713,-6.1706,-6.1703,-6.1685,-6.1681,-6.1669,-6.166,-6.1654,-6.1673,-6.1659,-6.1671,-6.1687,-6.1689,-6.1692,-6.1694,-6.1701,-6.1704,-6.1672,-6.1672,-6.1672,0,-6.1789,-6.1783,-6.1766,-6.1765,-6.176,-6.1739,-6.1741,-6.1733,-6.1717,-6.1714,-6.1706,-6.1692,-6.1681,-6.1679,-6.1684,-6.1679,-6.1679,-6.1672,-6.1693,-6.1695,-6.1697,-6.1703,-6.1706,-6.1673,-6.1673,-6.1673,-6.1673,0,-6.1804,-6.1801,-6.1804,-6.179,-6.1786,-6.1785,-6.1768,-6.1765,-6.1754,-6.1743,-6.1741,-6.1727,-6.1717,-6.1715,-6.1704,-6.1712,-6.1708,-6.1697,-6.1682,-6.1702,-6.1708,-6.171,-6.1675,-6.1675,-6.1674,-6.1674,0,0,-6.1838,-6.1817,-6.1818,-6.1813,-6.1797,-6.1794,-6.1793,-6.1784,-6.1782,-6.1773,-6.1772,-6.1763,-6.1753,-6.1746,-6.1734,-6.1735,-6.1752,-6.1724,-6.1723,-6.173,-6.1761,-6.177,-6.1773,-6.1743,-6.1743,-6.1744,-6.1762,0,-6.1855,-6.1854,-6.1839,-6.1841,-6.1838,-6.182,-6.1819,-6.181,-6.18,-6.1795,-6.1784,-6.1778,-6.1765,-6.1761,-6.1762,-6.175,-6.1758,-6.1748,-6.1741,-6.1741,-6.1745,-6.1776,-6.1784,-6.1803,-6.1765,-6.1765,-6.1765,0,-6.1875,-6.1868,-6.187,-6.1856,-6.1854,-6.1854,-6.1845,-6.1842,-6.1831,-6.1823,-6.1817,-6.1803,-6.1801,-6.1788,-6.1786,-6.178,-6.1776,-6.177,-6.177,-6.1769,-6.1754,-6.1775,-6.1808,-6.1811,-6.1768,-6.1768,-6.1768,0,-6.19,-6.1891,-6.1892,-6.1887,-6.187,-6.1871,-6.1864,-6.1852,-6.1849,-6.1841,-6.1838,-6.183,-6.1826,-6.182,-6.1805,-6.1796,-6.1804,-6.1789,-6.1798,-6.1798,-6.1799,-6.1799,-6.1832,-6.1798,-6.1798,-6.1798,-6.1798,0,-6.1921,-6.1923,-6.1903,-6.1903,-6.1905,-6.1889,-6.1891,-6.1882,-6.1873,-6.1871,-6.1854,-6.1853,-6.1833,-6.1829,-6.1818,-6.1818,-6.1816,-6.181,-6.1806,-6.1811,-6.1812,-6.1808,-6.1806,-6.1798,-6.1798,-6.1798,-6.1798,0,-6.1948,-6.1935,-6.1935,-6.192,-6.1916,-6.1918,-6.1905,-6.1905,-6.1894,-6.1892,-6.1891,-6.1874,-6.1869,-6.1854,-6.1845,-6.1837,-6.184,-6.1834,-6.1844,-6.1842,-6.1852,-6.1851,-6.1883,-6.1887,-6.185,-6.185,-6.1851,0,-6.1962,-6.1964,-6.195,-6.1948,-6.1942,-6.1939,-6.1935,-6.1919,-6.1916,-6.1905,-6.1906,-6.19,-6.1894,-6.1887,-6.1874,-6.1867,-6.1861,-6.1873,-6.1859,-6.1865,-6.1861,-6.1861,-6.1862,-6.1875,-6.1876,-6.1876,-6.1876,0,-6.1989,-6.1983,-6.1978,-6.1972,-6.1969,-6.1963,-6.1956,-6.1955,-6.1938,-6.1935,-6.193,-6.1926,-6.1918,-6.1912,-6.1904,-6.1896,-6.1883,-6.1881,-6.1882,-6.1887,-6.1893,-6.189,-6.1852,-6.188,-6.188,-6.1879,-6.1879,-6.1879,-6.201,-6.2011,-6.2001,-6.1997,-6.1991,-6.1985,-6.1985,-6.1975,-6.1971,-6.1964,-6.1955,-6.1951,-6.1941,-6.1929,-6.1923,-6.192,-6.1913,-6.1915,-6.1915,-6.1916,-6.1919,-6.1894,-6.1918,-6.1918,-6.1918,-6.1918,-6.1917,0,-6.2036,-6.2029,-6.2026,-6.2017,-6.2015,-6.2004,-6.1997,-6.1995,-6.1992,-6.1985,-6.198,-6.1975,-6.197,-6.1958,-6.1951,-6.1951,-6.1946,-6.195,-6.195,-6.1949,-6.1925,-6.1924,-6.1955,-6.1955,-6.1955,-6.1955,-6.1955,-6.1955,-6.2049,-6.205,-6.2043,-6.2041,-6.2034,-6.2031,-6.2028,-6.2023,-6.2017,-6.2013,-6.2009,-6.2001,-6.1991,-6.1985,-6.198,-6.1976,-6.1974,-6.1981,-6.1976,-6.1954,-6.195,-6.1947,-6.1946,-6.1981,-6.1981,-6.2,-6.2,-6.2]}]]